Regional Weather Roundup
Issued by NWS

Home | Current Version | Previous Version | Graphics & Text | Print | Product List | Glossary On
Versions: 1 2 3 4 5 6 7 8 9 10 11 12 13 14 15 16 17 18 19 20 21 22 23 24 25 26 27 28 29 30 31 32 33 34 35 36 37 38 39 40 41 42 43 44 45 46 47 48 49 50
000
ASUS43 KBIS 280002
RWRND

NORTH DAKOTA REGIONAL WEATHER ROUNDUP
NATIONAL WEATHER SERVICE BISMARCK ND
700 PM CDT SUN MAY 27 2018

NOTE: "FAIR" INDICATES FEW OR NO CLOUDS BELOW 12,000 FEET WITH NO
SIGNIFICANT WEATHER AND/OR OBSTRUCTIONS TO VISIBILITY.


NDZ001>003-009>011-017-280100-
NORTHWEST NORTH DAKOTA

CITY           SKY/WX    TMP DP  RH WIND       PRES   REMARKS
WILLISTON      PTSUNNY   80  56  43 N14       29.94S
6HR MIN TEMP:  75; 6HR MAX TEMP:  82;

MINOT          SUNNY     84  55  36 N9        29.89S
MINOT AFB      SUNNY     82  56  40 N8        29.88S
$$

NDZ018>021-031>035-040>046-280100-
SOUTHWEST NORTH DAKOTA

CITY           SKY/WX    TMP DP  RH WIND       PRES   REMARKS
BISMARCK       SUNNY     80  62  54 N15G25    29.86S
6HR MIN TEMP:  74; 6HR MAX TEMP:  82;

DICKINSON      MOSUNNY   79  57  46 NE17      29.91F
GARRISON         N/A     81  58  45 N10       29.88F
6HR MIN TEMP:  70; 6HR MAX TEMP:  82;

HETTINGER ARPT MOSUNNY   78  56  46 N18       29.92R
$$

NDZ004>008-012>016-024-026-027-054-280100-
NORTHEAST NORTH DAKOTA

CITY           SKY/WX    TMP DP  RH WIND       PRES   REMARKS
GRAND FORKS    FAIR      84  62  47 N6        29.81S
DEVILS LAKE    FAIR      80  57  45 N14       29.87S
$$

NDZ022-023-025-028>030-036>039-047>053-280100-
SOUTHEAST NORTH DAKOTA

CITY           SKY/WX    TMP DP  RH WIND       PRES   REMARKS
FARGO          FAIR      81  63  54 NE13      29.78S
6HR MIN TEMP:  74; 6HR MAX TEMP:  83; 6HR PCP: TRACE;

JAMESTOWN      MOSUNNY   78  64  61 NE16      29.82F
$$





USA.gov is the U.S. government's official web portal to all federal, state and local government web resources and services.